Weather History for KTCM - May, 2012

Change the Weather History Date:

Sunday, May 6, 2012

  Actual Average Record
Temperature  
Mean Temperature 49 °F -  
Max Temperature 63 °F 59 °F 86 °F (2013)
Min Temperature 35 °F 40 °F 33 °F (2003)
Degree Days  
Heating Degree Days 16    
Moisture  
Dew Point 38 °F    
Average Humidity 92    
Maximum Humidity 100    
Minimum Humidity 37    
Precipitation  
Precipitation 0.00 in - - ()
Sea Level Pressure  
Sea Level Pressure 30.49 in    
Wind  
Wind Speed 1 mph (ENE)    
Max Wind Speed 10 mph    
Max Gust Speed -    
Visibility 4 miles    
Events Fog    
Averages and records for this station are not official NWS values.
T = Trace of Precipitation, MM = Missing Value Source: NWS Daily Summary

Daily Weather History Graph

Daily Weather History Graph

Search for Another Location

Airport or City:

Trip Planner

Search our weather history database for the weather conditions in past years. The results will help you decide how hot, cold, wet, or windy it might be!

Date:

Astronomy

May. 06, 2012 Rise Set
Actual Time 5:45 AM PDT 8:28 PM PDT
Civil Twilight 5:10 AM PDT 9:03 PM PDT
Nautical Twilight 4:26 AM PDT 9:47 PM PDT
Astronomical Twilight 3:34 AM PDT 10:40 PM PDT
Moon 9:45 PM PDT (5/6) 5:57 AM PDT (5/6)
Length of Visible Light 15h 52m
Length of Day
14h 42m
Full, 99% of the Moon is Illuminated
May 6
Full
May 12
Last Quarter
May 20
New
May 28
First Quarter
Jun 4
Full

Hourly Weather History & Observations

Time (PDT) Temp. Windchill Dew Point Humidity Pressure Visibility Wind Dir Wind Speed Gust Speed Precip Events Conditions
12:55 AM 41.0 °F - 40.6 °F 99% 30.52 in 10.0 mi Calm Calm - N/A   Clear
12:58 AM 41.0 °F - 41.0 °F 100% 30.52 in 2.5 mi Calm Calm - N/A   Clear
12:59 AM 41.0 °F - 41.0 °F 100% 30.52 in 2.0 mi Calm Calm - N/A   Clear
1:07 AM 41.0 °F 39.0 °F 39.2 °F 93% 30.52 in 3.0 mi South 3.5 mph - N/A   Clear
1:09 AM 39.2 °F 37.0 °F 39.2 °F 100% 30.52 in 2.5 mi SSE 3.5 mph - N/A   Clear
1:10 AM 39.2 °F 37.0 °F 39.2 °F 100% 30.52 in 1.8 mi SSE 3.5 mph - N/A   Clear
1:11 AM 39.2 °F 37.0 °F 37.4 °F 93% 30.52 in 1.5 mi SSE 3.5 mph - N/A   Clear
1:18 AM 39.2 °F - 39.2 °F 100% 30.52 in 1.8 mi Calm Calm - N/A   Clear
1:19 AM 39.2 °F - 39.2 °F 100% 30.52 in 2.5 mi Calm Calm - N/A   Clear
1:20 AM 39.2 °F - 39.2 °F 100% 30.52 in 4.0 mi Calm Calm - N/A   Clear
1:33 AM 41.0 °F - 39.2 °F 93% 30.51 in 10.0 mi Calm Calm - N/A   Mostly Cloudy
1:45 AM 41.0 °F - 39.2 °F 93% 30.51 in 5.0 mi Calm Calm - N/A   Mostly Cloudy
1:48 AM 39.2 °F - 39.2 °F 100% 30.51 in 2.5 mi Calm Calm - N/A   Overcast
1:49 AM 39.2 °F - 39.2 °F 100% 30.51 in 2.0 mi Calm Calm - N/A   Overcast
1:50 AM 39.2 °F - 39.2 °F 100% 30.51 in 1.8 mi Calm Calm - N/A   Overcast
1:52 AM 39.2 °F - 39.2 °F 100% 30.51 in 1.5 mi Calm Calm - N/A   Overcast
1:53 AM 39.2 °F - 39.2 °F 100% 30.51 in 1.2 mi Calm Calm - N/A   Overcast
1:55 AM 39.6 °F - 39.4 °F 99% 30.51 in 1.2 mi Calm Calm - N/A   Overcast
1:56 AM 39.2 °F - 39.2 °F 100% 30.51 in 1.0 mi Calm Calm - N/A   Overcast
1:57 AM 39.2 °F - 39.2 °F 100% 30.51 in 1.0 mi Calm Calm - N/A   Mostly Cloudy
1:58 AM 39.2 °F - 39.2 °F 100% 30.51 in 0.8 mi Calm Calm - N/A   Mostly Cloudy
2:07 AM 39.2 °F - 39.2 °F 100% 30.51 in 0.8 mi Calm Calm - N/A   Mostly Cloudy
2:08 AM 39.2 °F - 39.2 °F 100% 30.51 in 1.0 mi Calm Calm - N/A   Mostly Cloudy
2:10 AM 39.2 °F - 39.2 °F 100% 30.51 in 1.2 mi Calm Calm - N/A   Mostly Cloudy
2:12 AM 39.2 °F - 39.2 °F 100% 30.51 in 1.8 mi Calm Calm - N/A   Mostly Cloudy
2:15 AM 39.2 °F - 39.2 °F 100% 30.50 in 1.2 mi Calm Calm - N/A   Scattered Clouds
2:16 AM 39.2 °F - 39.2 °F 100% 30.50 in 1.0 mi Calm Calm - N/A   Scattered Clouds
2:17 AM 39.2 °F - 39.2 °F 100% 30.50 in 0.8 mi Calm Calm - N/A   Scattered Clouds
2:19 AM 39.2 °F - 39.2 °F 100% 30.50 in 0.5 mi Calm Calm - N/A Fog Fog
2:22 AM 39.2 °F - 37.4 °F 93% 30.50 in 0.5 mi Calm Calm - N/A Fog Fog
2:23 AM 37.4 °F 34.9 °F 37.4 °F 100% 30.50 in 0.5 mi ESE 3.5 mph - N/A Fog Fog
2:28 AM 37.4 °F 34.9 °F 37.4 °F 100% 30.50 in 0.8 mi ESE 3.5 mph - N/A   Partly Cloudy
2:33 AM 37.4 °F 33.8 °F 37.4 °F 100% 30.50 in 0.8 mi ESE 4.6 mph - N/A   Partly Cloudy
2:34 AM 37.4 °F 33.8 °F 37.4 °F 100% 30.50 in 0.8 mi ESE 4.6 mph - N/A   Clear
2:35 AM 37.4 °F 34.9 °F 37.4 °F 100% 30.50 in 1.0 mi East 3.5 mph - N/A   Clear
2:37 AM 37.4 °F 33.8 °F 37.4 °F 100% 30.50 in 1.2 mi East 4.6 mph - N/A   Clear
2:39 AM 37.4 °F 33.8 °F 37.4 °F 100% 30.50 in 2.0 mi East 4.6 mph - N/A   Clear
2:40 AM 37.4 °F 34.9 °F 37.4 °F 100% 30.50 in 2.5 mi East 3.5 mph - N/A   Clear
2:41 AM 37.4 °F 33.8 °F 37.4 °F 100% 30.50 in 4.0 mi East 4.6 mph - N/A   Clear
2:55 AM 38.3 °F 34.8 °F 37.9 °F 99% 30.50 in 10.0 mi SE 4.6 mph - N/A   Clear
3:55 AM 37.4 °F - 37.0 °F 99% 30.50 in 6.0 mi Calm Calm - N/A   Partly Cloudy
4:11 AM 37.4 °F - 37.4 °F 100% 30.50 in 2.5 mi Calm Calm - N/A   Clear
4:13 AM 37.4 °F - 37.4 °F 100% 30.50 in 2.0 mi Calm Calm - N/A   Clear
4:16 AM 37.4 °F - 37.4 °F 100% 30.50 in 2.5 mi Calm Calm - N/A   Clear
4:18 AM 37.4 °F - 37.4 °F 100% 30.50 in 2.0 mi Calm Calm - N/A   Clear
4:19 AM 37.4 °F - 37.4 °F 100% 30.50 in 1.5 mi Calm Calm - N/A   Clear
4:23 AM 37.4 °F - 37.4 °F 100% 30.50 in 1.0 mi Calm Calm - N/A   Clear
4:25 AM 37.4 °F - 35.6 °F 93% 30.50 in 0.8 mi Calm Calm - N/A   Clear
4:27 AM 37.4 °F - 35.6 °F 93% 30.50 in 0.8 mi Calm Calm - N/A   Clear
4:32 AM 37.4 °F - 37.4 °F 100% 30.50 in 0.5 mi Calm Calm - N/A Fog Fog
4:36 AM 37.4 °F - 37.4 °F 100% 30.50 in 0.8 mi Calm Calm - N/A   Clear
4:37 AM 37.4 °F - 37.4 °F 100% 30.50 in 0.5 mi Calm Calm - N/A Fog Fog
4:41 AM 37.4 °F - 37.4 °F 100% 30.50 in 0.8 mi Calm Calm - N/A   Clear
4:53 AM 37.4 °F - 35.6 °F 93% 30.50 in 0.5 mi Calm Calm - N/A Fog Fog
4:55 AM 36.9 °F - 36.5 °F 99% 30.50 in 0.5 mi Calm Calm - N/A Fog Fog
4:57 AM 37.4 °F - 35.6 °F 93% 30.50 in 0.2 mi Calm Calm - N/A Fog Fog
5:00 AM 35.6 °F - 35.6 °F 100% 30.50 in 0.2 mi Calm Calm - N/A Fog Fog
5:01 AM 35.6 °F - 35.6 °F 100% 30.50 in 0.2 mi Calm Calm - N/A Fog Fog
5:05 AM 35.6 °F - 35.6 °F 100% 30.50 in 0.2 mi Calm Calm - N/A Fog Fog
5:06 AM 35.6 °F - 35.6 °F 100% 30.50 in 0.2 mi Calm Calm - N/A Fog Fog
5:07 AM 35.6 °F - 35.6 °F 100% 30.50 in 0.5 mi Calm Calm - N/A Fog Fog
5:11 AM 35.6 °F - 35.6 °F 100% 30.50 in 0.5 mi Calm Calm - N/A Fog Fog
5:13 AM 35.6 °F - 35.6 °F 100% 30.50 in 0.8 mi Calm Calm - N/A   Mist
5:14 AM 35.6 °F - 35.6 °F 100% 30.50 in 0.8 mi Calm Calm - N/A   Mist
5:15 AM 35.6 °F - 35.6 °F 100% 30.50 in 0.8 mi Calm Calm - N/A   Mist
5:16 AM 35.6 °F - 35.6 °F 100% 30.50 in 1.0 mi Calm Calm - N/A   Mist
5:19 AM 37.4 °F - 35.6 °F 93% 30.50 in 1.2 mi Calm Calm - N/A   Scattered Clouds
5:22 AM 37.4 °F - 37.4 °F 100% 30.50 in 1.8 mi Calm Calm - N/A   Mostly Cloudy
5:25 AM 37.4 °F - 37.4 °F 100% 30.50 in 1.5 mi Calm Calm - N/A   Mostly Cloudy
5:27 AM 37.4 °F - 37.4 °F 100% 30.50 in 1.0 mi Calm Calm - N/A   Mostly Cloudy
5:29 AM 37.4 °F - 35.6 °F 93% 30.50 in 1.0 mi Calm Calm - N/A   Mostly Cloudy
5:33 AM 35.6 °F - 35.6 °F 100% 30.50 in 0.8 mi Calm Calm - N/A   Mostly Cloudy
5:35 AM 35.6 °F - 35.6 °F 100% 30.50 in 1.0 mi Calm Calm - N/A   Mostly Cloudy
5:37 AM 35.6 °F - 35.6 °F 100% 30.50 in 1.2 mi Calm Calm - N/A   Overcast
5:39 AM 35.6 °F - 35.6 °F 100% 30.50 in 1.8 mi Calm Calm - N/A   Overcast
5:41 AM 35.6 °F - 35.6 °F 100% 30.50 in 2.0 mi Calm Calm - N/A   Overcast
5:42 AM 35.6 °F - 35.6 °F 100% 30.50 in 3.0 mi Calm Calm - N/A   Overcast
5:44 AM 35.6 °F - 35.6 °F 100% 30.50 in 7.0 mi Calm Calm - N/A   Overcast
5:50 AM 37.4 °F - 35.6 °F 93% 30.50 in 2.5 mi Calm Calm - N/A   Overcast
5:53 AM 37.4 °F - 37.4 °F 100% 30.50 in 3.0 mi Calm Calm - N/A   Overcast
5:55 AM 36.9 °F - 36.7 °F 99% 30.50 in 3.0 mi Calm Calm - N/A   Overcast
6:19 AM 37.4 °F 34.9 °F 37.4 °F 100% 30.49 in 10.0 mi ESE 3.5 mph - N/A   Overcast
6:37 AM 39.2 °F - 39.2 °F 100% 30.49 in 10.0 mi Calm Calm - N/A   Overcast
6:55 AM 40.5 °F - 40.1 °F 99% 30.49 in 10.0 mi Calm Calm - N/A   Overcast
7:00 AM 41.0 °F - 41.0 °F 100% 30.49 in 10.0 mi Calm Calm - N/A   Overcast
7:08 AM 41.0 °F - 41.0 °F 100% 30.49 in 10.0 mi Calm Calm - N/A   Overcast
7:55 AM 44.2 °F - 43.9 °F 99% 30.50 in 9.0 mi Calm Calm - N/A   Overcast
8:55 AM 45.0 °F 43.5 °F 43.7 °F 95% 30.50 in 10.0 mi NNW 3.5 mph - N/A   Overcast
9:22 AM 44.6 °F 42.2 °F 44.6 °F 100% 30.50 in 9.0 mi NW 4.6 mph - N/A   Overcast
9:42 AM 46.4 °F 45.2 °F 44.6 °F 93% 30.51 in 10.0 mi Variable 3.5 mph - N/A   Overcast
9:55 AM 46.9 °F - 44.4 °F 91% 30.50 in 10.0 mi NW 4.6 mph - N/A   Overcast
10:09 AM 48.2 °F - 44.6 °F 87% 30.50 in 10.0 mi Calm Calm - N/A   Overcast
10:31 AM 48.2 °F - 44.6 °F 87% 30.50 in 10.0 mi WNW 3.5 mph - N/A   Overcast
10:45 AM 50.0 °F - 44.6 °F 82% 30.50 in 10.0 mi Variable 4.6 mph - N/A   Mostly Cloudy
10:48 AM 50.0 °F - 44.6 °F 82% 30.50 in 10.0 mi Variable 4.6 mph - N/A   Mostly Cloudy
10:54 AM 51.8 °F - 44.6 °F 76% 30.50 in 10.0 mi Calm Calm - N/A   Mostly Cloudy
10:55 AM 51.1 °F - 44.6 °F 78% 30.50 in 10.0 mi West 4.6 mph - N/A   Mostly Cloudy
11:00 AM 51.8 °F - 44.6 °F 76% 30.49 in 10.0 mi Calm Calm - N/A   Scattered Clouds
11:55 AM 56.3 °F - 42.1 °F 59% 30.49 in 10.0 mi NNW 8.1 mph - N/A   Clear
12:55 PM 58.3 °F - 40.5 °F 52% 30.47 in 10.0 mi NE 10.4 mph - N/A   Clear
1:55 PM 59.9 °F - 39.4 °F 47% 30.46 in 10.0 mi ENE 5.8 mph - N/A   Clear
2:55 PM 61.3 °F - 37.2 °F 41% 30.45 in 10.0 mi NNE 8.1 mph - N/A   Clear
3:55 PM 61.9 °F - 39.2 °F 43% 30.44 in 10.0 mi NE 5.8 mph - N/A   Clear
4:55 PM 63.1 °F - 36.7 °F 37% 30.42 in 10.0 mi North 5.8 mph - N/A   Clear
5:55 PM 63.1 °F - 37.8 °F 39% 30.40 in 10.0 mi Variable 6.9 mph - N/A   Clear
6:55 PM 61.9 °F - 37.8 °F 41% 30.40 in 10.0 mi North 5.8 mph - N/A   Clear
7:55 PM 59.0 °F - 35.6 °F 42% 30.39 in 10.0 mi NNE 8.1 mph - N/A   Clear
8:55 PM 55.8 °F - 36.9 °F 49% 30.38 in 10.0 mi North 6.9 mph - N/A   Clear
9:55 PM 53.6 °F - 34.9 °F 49% 30.39 in 10.0 mi NNE 5.8 mph - N/A   Clear
10:55 PM 51.4 °F - 36.1 °F 56% 30.39 in 10.0 mi NNE 3.5 mph - N/A   Clear
11:55 PM 43.7 °F - 37.4 °F 78% 30.39 in 10.0 mi Calm Calm - N/A   Clear